Location: Usti nad Labem
(50.6670°N, 14.0330°E)
Time: 23:59:32
(UTC+01:00)

ISS - Pass Details

Date: 07 October 2020
Orbit: 417 x 420 km, 51.6° (Epoch: 30 October)

Event Time Altitude Azimuth Distance (km) Brightness Sun altitude
Rises 19:34:54 0° 280° (W) 2,368 2.2 -11.4°
Reaches altitude 10° 19:37:48 10° 253° (WSW) 1,500 0.2 -11.9°
Maximum altitude 19:39:31 13° 222° (SW) 1,303 -0.8 -12.1°
Drops below altitude 10° 19:41:15 10° 191° (S) 1,495 -0.9 -12.4°
Sets 19:44:08 0° 164° (SSE) 2,354 -0.2 -12.9°
Enters shadow 19:44:13 - 163° (SSE) 2,382 -0.2 -12.9°
